Home   Weather   Fayetteville   Past weeks
Flag for USA

Past Weather in Fayetteville, North Carolina, USA — Yesterday and Last 2 Weeks

Now
46 °F

Clear.


Feels Like: 46 °F
Forecast: 69 / 43 °F
Wind: No wind

Location: Fayetteville Regional Airport

Current Time: Oct 19, 2019 at 5:37:46 am

Latest Report: Oct 19, 2019 at 4:53 am


Visibility: 10 mi

Pressure: 30.04 "Hg

Humidity: 89%

Dew Point: 43 °F

Location of FayettevilleLocation

Past Weather in Fayetteville — Graph

°F

Fayetteville Temperature Yesterday

Maximum temperature yesterday: 68 °F (at 2:53 pm)
Minimum temperature yesterday: 46 °F (at 4:53 am)
Average temperature yesterday: 57 °F

High & Low Weather Summary for the Past Weeks

 TemperatureHumidityPressure
High97 °F (Oct 4, 2:53 pm)97% (Oct 14, 5:25 am)30.27 "Hg (Oct 14, 5:25 am)
Low46 °F (Oct 18, 4:53 am)31% (Oct 12, 2:53 pm)29.57 "Hg (Oct 16, 2:53 pm)
Average67 °F70%30.02 "Hg
* Reported Oct 4 3:53 am — Oct 19 3:53 am, Fayetteville. Weather by CustomWeather, © 2019

Note: Actual official high and low records may vary slightly from our data, if they occured in-between our weather recording intervals... More about our weather records

Advertising

Fayetteville Weather History for the Previous 24 Hours

Scroll right to see more
 ConditionsComfort  
Time TempWeatherWind HumidityBarometerVisibility
3:53 am
Sat, Oct 19
46 °FClear.No wind89%30.03 "Hg10 mi
2:53 am49 °FClear.No wind84%30.05 "Hg10 mi
1:53 am47 °FClear.7 mph90%30.03 "Hg10 mi
12:53 am46 °FClear.5 mph89%30.03 "Hg10 mi
11:53 pm
Fri, Oct 18
50 °FClear.No wind77%30.02 "Hg10 mi
10:53 pm51 °FClear.No wind80%30.03 "Hg10 mi
9:53 pm52 °FClear.No wind75%30.01 "Hg10 mi
8:53 pm52 °FClear.No wind75%30.02 "Hg10 mi
7:53 pm55 °FClear.No wind69%30.02 "Hg10 mi
6:53 pm61 °FClear.3 mph54%30.01 "Hg10 mi
5:53 pm64 °FSunny.3 mph41%29.98 "Hg10 mi
4:53 pm68 °FSunny.6 mph33%29.98 "Hg10 mi
3:53 pm67 °FSunny.5 mph33%29.97 "Hg10 mi
2:53 pm68 °FSunny.5 mph32%29.97 "Hg10 mi
1:53 pm65 °FSunny.6 mph36%29.99 "Hg10 mi
12:53 pm65 °FSunny.10 mph37%30.01 "Hg10 mi
11:53 am62 °FSunny.5 mph38%30.02 "Hg10 mi
10:53 am62 °FSunny.9 mph38%30.02 "Hg10 mi
9:53 am59 °FSunny.10 mph46%30.01 "Hg10 mi
8:53 am54 °FSunny.7 mph57%30.01 "Hg10 mi
7:53 am48 °FSunny.5 mph71%29.99 "Hg10 mi
6:53 am48 °FClear.5 mph68%29.99 "Hg10 mi
5:53 am49 °FClear.5 mph66%29.97 "Hg10 mi
Weather by CustomWeather, © 2019

See weather overview